TimeMDT,TemperatureF,Dew PointF,Humidity,Sea Level PressureIn,VisibilityMPH,Wind Direction,Wind SpeedMPH,Gust SpeedMPH,PrecipitationIn,Events,Conditions,WindDirDegrees,DateUTC
12:53 AM,70.0,57.0,63,30.01,10.0,South,16.1,-,N/A,,Clear,180,2013-07-18 06:53:00
1:53 AM,68.0,57.9,70,30.01,10.0,South,15.0,-,N/A,,Clear,180,2013-07-18 07:53:00
2:53 AM,66.9,57.9,73,29.99,10.0,South,12.7,-,N/A,,Clear,180,2013-07-18 08:53:00
3:53 AM,64.9,57.0,75,29.97,10.0,South,11.5,-,N/A,,Clear,180,2013-07-18 09:53:00
4:53 AM,62.1,55.9,80,29.97,10.0,South,10.4,-,N/A,,Clear,170,2013-07-18 10:53:00
5:53 AM,62.1,57.0,84,29.97,10.0,South,11.5,-,N/A,,Clear,180,2013-07-18 11:53:00
6:53 AM,66.0,57.9,75,29.98,10.0,South,13.8,-,N/A,,Clear,180,2013-07-18 12:53:00
7:53 AM,70.0,57.0,63,29.98,10.0,South,17.3,-,N/A,,Clear,190,2013-07-18 13:53:00
8:53 AM,75.9,57.0,52,29.98,10.0,SSW,11.5,-,N/A,,Clear,200,2013-07-18 14:53:00
9:53 AM,80.1,57.0,45,29.97,10.0,SW,11.5,-,N/A,,Clear,220,2013-07-18 15:53:00
10:53 AM,82.9,55.9,39,29.97,10.0,SW,11.5,-,N/A,,Clear,220,2013-07-18 16:53:00
11:53 AM,86.0,55.0,35,29.93,10.0,SSE,10.4,-,N/A,,Clear,160,2013-07-18 17:53:00
12:53 PM,91.0,52.0,26,29.91,10.0,SSW,8.1,-,N/A,,Clear,210,2013-07-18 18:53:00
1:53 PM,93.0,53.1,26,29.89,10.0,SSE,9.2,-,N/A,,Clear,150,2013-07-18 19:53:00
2:53 PM,95.0,51.1,22,29.87,10.0,East,6.9,-,N/A,,Clear,100,2013-07-18 20:53:00
3:53 PM,96.1,48.9,20,29.86,10.0,Variable,4.6,19.6,N/A,,Clear,0,2013-07-18 21:53:00
4:53 PM,96.1,50.0,21,29.85,10.0,East,9.2,-,N/A,,Clear,100,2013-07-18 22:53:00
5:53 PM,93.9,51.1,23,29.84,10.0,East,10.4,-,N/A,,Clear,100,2013-07-18 23:53:00
6:53 PM,93.0,51.1,24,29.83,10.0,East,12.7,-,N/A,,Clear,80,2013-07-19 00:53:00
7:53 PM,86.0,51.1,30,29.86,10.0,ESE,5.8,-,N/A,,Clear,110,2013-07-19 01:53:00
8:53 PM,79.0,53.1,40,29.88,10.0,SSE,4.6,-,N/A,,Clear,160,2013-07-19 02:53:00
9:21 PM,78.8,55.4,44,30.09,10.0,West,24.2,32.2,N/A,,Mostly Cloudy,280,2013-07-19 03:21:00
9:48 PM,75.2,57.2,53,30.10,10.0,WNW,27.6,33.4,N/A,Thunderstorm,Scattered Clouds,290,2013-07-19 03:48:00
9:53 PM,75.9,57.0,52,29.94,10.0,WNW,20.7,33.4,N/A,Thunderstorm,Mostly Cloudy,300,2013-07-19 03:53:00
10:53 PM,71.1,62.1,73,29.94,10.0,WNW,16.1,-,0.08,Rain-Thunderstorm,Light Rain,290,2013-07-19 04:53:00
10:55 PM,71.6,62.6,73,30.11,10.0,West,16.1,-,0.00,Rain-Thunderstorm,Light Thunderstorms and Rain,280,2013-07-19 04:55:00
11:38 PM,69.8,62.6,78,30.13,10.0,WNW,13.8,-,0.02,Rain-Thunderstorm,Light Rain,290,2013-07-19 05:38:00
11:53 PM,69.1,62.1,78,29.96,10.0,West,15.0,-,0.03,Rain,Light Rain,280,2013-07-19 05:53:00